Flag for Germany Weather past 2 weeks in Kassel, Hesse, Germany

Now
52 °F

Scattered clouds.


Feels Like: 50 °F
Forecast: 30 / 61 °F
Wind: 6 mph from North

Location: Kassel / Calden


UV Index: 3 (Moderate)

Visibility: N/A


Pressure: 30.42 "Hg

Humidity: 47%

Dew point: 32 °F

Location of KasselLocation

Historic Weather in Kassel

°F

Kassel temperature yesterday

Maximum temperature yesterday: 45 °F (at 2:50 PM)
Minimum temperature yesterday: 37 °F (at 5:50 AM)
Average temperature yesterday: 42 °F

Past Weeks' High & Low Weather Summary

 TemperatureHumidityPressure
High72 °F (Apr 3, 3:20 PM)100% (Apr 5, 6:50 AM)30.45 "Hg (Apr 5, 6:50 AM)
Low30 °F (Apr 16, 5:50 AM)33% (Apr 3, 5:20 PM)29.65 "Hg (Apr 3, 5:50 AM)
Average52 °F71%29.99 "Hg
* Reported Apr 1 2:20 PM — Apr 16 2:20 PM, Kassel, Weather by CustomWeather, © 2014

Note: Actual official high and low records may vary slightly from our data, if they occured in-between our weather recording intervals... More about our weather records

Advertising

Historic Weather Conditions — Data for Previous 24 hours

 ConditionsComfort  
Time TempWeatherWind HumidityBarometerVisibility
2:20 PM
Apr 16
52 °FScattered clouds.8 mph47%30.42 "HgN/A
1:50 PM52 °FScattered clouds.8 mph47%30.42 "HgN/A
1:20 PM52 °FScattered clouds.2 mph50%30.42 "HgN/A
12:50 PM50 °FScattered clouds.3 mph58%30.42 "HgN/A
12:20 PM50 °FScattered clouds.2 mph58%30.42 "HgN/A
11:50 AM50 °FScattered clouds.2 mph62%30.42 "HgN/A
11:20 AM46 °FPassing clouds.3 mph66%30.42 "HgN/A
10:50 AM45 °FSunny.3 mph66%30.45 "Hg10 mi
10:20 AM43 °FSunny.2 mph76%30.45 "Hg10 mi
9:50 AM41 °FPassing clouds.3 mph81%30.42 "HgN/A
9:20 AM39 °FSunny.2 mph81%30.42 "Hg10 mi
8:50 AM37 °FSunny.2 mph87%30.42 "Hg10 mi
8:20 AM36 °FSunny.2 mph87%30.42 "Hg10 mi
7:50 AM34 °FSunny.2 mph93%30.42 "Hg10 mi
7:20 AM30 °FPassing clouds.2 mph93%30.42 "HgN/A
6:50 AM30 °FPassing clouds.1 mph93%30.39 "HgN/A
6:20 AM30 °FPassing clouds.2 mph93%30.39 "HgN/A
5:50 AM30 °FPassing clouds.2 mph93%30.39 "HgN/A
9:50 PM
Apr 15
41 °FClear.10 mph70%30.30 "Hg10 mi
9:20 PM41 °FPassing clouds.13 mph70%30.27 "HgN/A
8:50 PM41 °FScattered clouds.10 mph70%30.27 "HgN/A
8:20 PM43 °FScattered clouds.9 mph66%30.27 "HgN/A
7:50 PM45 °FPartly sunny.9 mph66%30.24 "HgN/A
7:20 PM45 °FScattered clouds.15 mph61%30.24 "HgN/A
6:50 PM45 °FScattered clouds.16 mph61%30.24 "HgN/A
6:20 PM45 °FScattered clouds.15 mph61%30.24 "HgN/A
5:50 PM45 °FPartly sunny.14 mph61%30.24 "HgN/A
5:20 PM45 °FBroken clouds.14 mph57%30.24 "HgN/A
4:50 PM45 °FMore clouds than sun.13 mph57%30.24 "HgN/A
4:20 PM43 °FMostly cloudy.16 mph66%30.24 "HgN/A
3:50 PM45 °FPartly sunny.13 mph66%30.24 "HgN/A
3:20 PM43 °FBroken clouds.12 mph66%30.24 "HgN/A
Weather by CustomWeather, © 2014

See weather overview